Time,TemperatureF,DewpointF,PressureIn,WindDirection,WindDirectionDegrees,WindSpeedMPH,WindSpeedGustMPH,Humidity,HourlyPrecipIn,Conditions,Clouds,dailyrainin,SoftwareType,DateUTC
2013-08-17 00:12:00,59.0,53.0,30.09,SE,135,0.0,0.0,80,0.00,,,0.00,,2013-08-17 04:12:00,
2013-08-17 00:23:00,58.0,52.0,30.09,SE,135,0.0,0.0,80,0.00,,,0.00,,2013-08-17 04:23:00,
2013-08-17 00:53:00,58.0,52.0,30.09,SE,135,0.0,0.0,81,0.00,,,0.00,,2013-08-17 04:53:00,
2013-08-17 01:13:00,57.0,52.0,30.09,SE,135,0.0,0.0,82,0.00,,,0.00,,2013-08-17 05:13:00,
2013-08-17 01:22:00,57.0,52.0,30.09,South,180,0.0,0.0,82,0.00,,,0.00,,2013-08-17 05:22:00,
2013-08-17 01:52:00,59.0,54.0,30.09,WNW,292,0.0,0.0,83,0.00,,,0.00,,2013-08-17 05:52:00,
2013-08-17 02:21:00,60.0,54.0,30.09,WNW,292,0.0,0.0,82,0.00,,,0.00,,2013-08-17 06:21:00,
2013-08-17 02:52:00,60.0,54.0,30.09,WNW,292,0.0,0.0,81,0.00,,,0.00,,2013-08-17 06:52:00,
2013-08-17 03:11:00,60.0,54.0,30.09,NW,315,0.0,0.0,81,0.00,,,0.00,,2013-08-17 07:11:00,
2013-08-17 03:22:00,59.0,53.0,30.09,WNW,292,0.0,0.0,81,0.00,,,0.00,,2013-08-17 07:22:00,
2013-08-17 03:52:00,59.0,53.0,30.09,WNW,292,0.0,1.0,80,0.00,,,0.00,,2013-08-17 07:52:00,
2013-08-17 04:11:00,60.0,54.0,30.09,WNW,292,0.0,0.0,80,0.00,,,0.00,,2013-08-17 08:11:00,
2013-08-17 04:21:00,59.0,53.0,30.09,WNW,292,0.0,0.0,80,0.00,,,0.00,,2013-08-17 08:21:00,
2013-08-17 04:52:00,59.0,53.0,30.10,NW,315,0.0,0.0,80,0.00,,,0.00,,2013-08-17 08:52:00,
2013-08-17 05:11:00,59.0,53.0,30.10,WNW,292,0.0,0.0,81,0.00,,,0.00,,2013-08-17 09:11:00,
2013-08-17 05:21:00,59.0,53.0,30.10,West,270,0.0,0.0,80,0.00,,,0.00,,2013-08-17 09:21:00,
2013-08-17 05:43:00,59.0,53.0,30.10,WNW,292,0.0,0.0,80,0.00,,,0.00,,2013-08-17 09:43:00,
2013-08-17 05:53:00,60.0,54.0,30.10,WNW,292,0.0,0.0,80,0.00,,,0.00,,2013-08-17 09:53:00,
2013-08-17 06:12:00,60.0,54.0,30.10,WNW,292,0.0,0.0,80,0.00,,,0.00,,2013-08-17 10:12:00,
2013-08-17 06:23:00,60.0,54.0,30.10,WNW,292,0.0,0.0,80,0.00,,,0.00,,2013-08-17 10:23:00,
2013-08-17 06:53:00,60.0,54.0,30.11,WNW,292,0.0,0.0,80,0.00,,,0.00,,2013-08-17 10:53:00,
2013-08-17 07:11:00,61.0,54.0,30.11,WNW,292,0.0,0.0,79,0.00,,,0.00,,2013-08-17 11:11:00,
2013-08-17 07:22:00,62.0,55.0,30.11,WNW,292,0.0,1.0,78,0.00,,,0.00,,2013-08-17 11:22:00,
2013-08-17 07:42:00,62.0,55.0,30.12,WNW,292,0.0,0.0,77,0.00,,,0.00,,2013-08-17 11:42:00,
2013-08-17 07:52:00,62.0,55.0,30.12,WNW,292,0.0,0.0,77,0.00,,,0.00,,2013-08-17 11:52:00,
2013-08-17 08:11:00,62.0,55.0,30.12,WNW,291,0.0,1.0,77,0.00,,,0.00,,2013-08-17 12:11:00,
2013-08-17 08:21:00,62.0,55.0,30.12,WNW,292,0.0,0.0,77,0.00,,,0.00,,2013-08-17 12:21:00,
2013-08-17 08:52:00,63.0,56.0,30.13,WNW,292,0.0,0.0,78,0.00,,,0.00,,2013-08-17 12:52:00,
2013-08-17 09:11:00,65.0,58.0,30.13,West,270,0.0,0.0,77,0.00,,,0.00,,2013-08-17 13:11:00,
2013-08-17 09:21:00,67.0,59.0,30.13,WNW,292,0.0,0.0,75,0.00,,,0.00,,2013-08-17 13:21:00,
2013-08-17 09:52:00,71.0,60.0,30.13,SSE,158,0.0,0.0,68,0.00,,,0.00,,2013-08-17 13:52:00,
2013-08-17 10:11:00,72.0,60.0,30.13,NW,315,0.0,0.0,67,0.00,,,0.00,,2013-08-17 14:11:00,
2013-08-17 10:21:00,74.0,62.0,30.14,WNW,292,0.0,0.0,67,0.00,,,0.00,,2013-08-17 14:21:00,
2013-08-17 10:42:00,75.0,62.0,30.14,WNW,292,0.0,0.0,65,0.00,,,0.00,,2013-08-17 14:42:00,
2013-08-17 11:11:00,79.0,63.0,30.14,NW,315,0.0,1.0,59,0.00,,,0.00,,2013-08-17 15:11:00,
2013-08-17 12:53:00,84.0,62.0,30.12,WNW,297,0.0,12.0,48,0.00,,,0.00,,2013-08-17 16:53:00,
2013-08-17 13:12:00,84.0,62.0,30.13,WNW,292,9.0,16.0,48,0.00,,,0.00,,2013-08-17 17:12:00,
2013-08-17 13:23:00,83.0,62.0,30.11,West,280,0.0,0.0,49,0.00,,,0.00,,2013-08-17 17:23:00,
2013-08-17 13:52:00,83.0,61.0,30.11,WSW,254,2.0,9.0,48,0.00,,,0.00,,2013-08-17 17:52:00,
2013-08-17 14:12:00,83.0,61.0,30.11,NW,311,1.0,56.0,47,0.00,,,0.00,,2013-08-17 18:12:00,
2013-08-17 14:21:00,83.0,60.0,30.10,North,0,0.0,3.0,46,0.00,,,0.00,,2013-08-17 18:21:00,
2013-08-17 15:11:00,85.0,62.0,30.10,NW,315,2.0,2.0,46,0.00,,,0.00,,2013-08-17 19:11:00,
2013-08-17 15:21:00,84.0,63.0,30.10,NW,315,0.0,0.0,49,0.00,,,0.00,,2013-08-17 19:21:00,
2013-08-17 15:52:00,82.0,61.0,30.09,ENE,68,0.0,1.0,50,0.00,,,0.00,,2013-08-17 19:52:00,
2013-08-17 16:11:00,80.0,62.0,30.08,SE,135,0.0,1.0,54,0.00,,,0.00,,2013-08-17 20:11:00,
2013-08-17 16:21:00,79.0,60.0,30.08,ESE,114,2.0,2.0,53,0.00,,,0.00,,2013-08-17 20:21:00,
2013-08-17 16:52:00,78.0,60.0,30.08,SE,127,2.0,3.0,54,0.00,,,0.00,,2013-08-17 20:52:00,
2013-08-17 17:21:00,77.0,60.0,30.07,North,11,0.0,2.0,55,0.00,,,0.00,,2013-08-17 21:21:00,
2013-08-17 17:54:00,77.0,60.0,30.06,ESE,112,2.0,5.0,55,0.00,,,0.00,,2013-08-17 21:54:00,
2013-08-17 18:13:00,76.0,59.0,30.06,NNW,329,1.0,2.0,56,0.00,,,0.00,,2013-08-17 22:13:00,
2013-08-17 18:22:00,76.0,59.0,30.06,ESE,116,0.0,1.0,56,0.00,,,0.00,,2013-08-17 22:22:00,
2013-08-17 18:52:00,76.0,60.0,30.06,East,96,0.0,3.0,57,0.00,,,0.00,,2013-08-17 22:52:00,
2013-08-17 19:22:00,75.0,60.0,30.05,ESE,123,2.0,2.0,59,0.00,,,0.00,,2013-08-17 23:22:00,
2013-08-17 19:32:00,75.0,60.0,30.05,ESE,123,2.0,2.0,59,0.00,,,0.00,,2013-08-17 23:32:00,
2013-08-17 19:52:00,73.0,60.0,30.06,South,172,0.0,2.0,64,0.00,,,0.00,,2013-08-17 23:52:00,
2013-08-17 20:21:00,71.0,59.0,30.06,SE,135,1.0,1.0,66,0.00,,,0.00,,2013-08-18 00:21:00,
2013-08-17 20:42:00,70.0,59.0,30.06,SE,135,1.0,1.0,67,0.00,,,0.00,,2013-08-18 00:42:00,
2013-08-17 20:52:00,70.0,59.0,30.05,SSE,158,0.0,1.0,68,0.00,,,0.00,,2013-08-18 00:52:00,
2013-08-17 21:11:00,68.0,58.0,30.05,SE,135,0.0,0.0,70,0.00,,,0.00,,2013-08-18 01:11:00,
2013-08-17 21:21:00,68.0,58.0,30.05,SSE,158,0.0,0.0,71,0.00,,,0.00,,2013-08-18 01:21:00,
2013-08-17 21:42:00,67.0,57.0,30.05,South,180,0.0,0.0,71,0.00,,,0.00,,2013-08-18 01:42:00,
2013-08-17 21:52:00,66.0,56.0,30.06,South,180,0.0,0.0,71,0.00,,,0.00,,2013-08-18 01:52:00,
2013-08-17 22:11:00,66.0,56.0,30.05,SSE,151,0.0,0.0,71,0.00,,,0.00,,2013-08-18 02:11:00,
2013-08-17 22:21:00,65.0,56.0,30.04,SSE,153,0.0,0.0,72,0.00,,,0.00,,2013-08-18 02:21:00,
2013-08-17 22:42:00,65.0,56.0,30.06,West,270,0.0,0.0,73,0.00,,,0.00,,2013-08-18 02:42:00,
2013-08-17 22:52:00,64.0,55.0,30.06,West,270,0.0,0.0,73,0.00,,,0.00,,2013-08-18 02:52:00,
2013-08-17 23:21:00,64.0,56.0,30.06,SSE,148,0.0,0.0,75,0.00,,,0.00,,2013-08-18 03:21:00,
2013-08-17 23:53:00,63.0,55.0,30.05,SSE,158,0.0,0.0,75,0.00,,,0.00,,2013-08-18 03:53:00,